ARKTIKA-M 2

Last updated on Thu Oct 23 2025 00:02:30 GMT+0000 (Coordinated Universal Time)

1 58584U 23198A 25281.02891479 .00000175 00000+0 00000+0 0 9992 2 58584 63.2206 182.0614 6863476 268.3696 18.7745 2.00600290 13266
UTC large
Height (km)
Speed (km/s)
/
Latitude / Longitude
Inclination (degrees)
Orbital Period (minutes)
Azimuth
Elevation
Range (km)
Doppler Factor

Next 0 passes for location: London (51.5072 / 0.1276)

Sorry there are no passes over London.